COSMOS 1275 DEB, 12674

Orbit data source: Space-Track

COSMOS 1275 DEB, 12674 is space debris in LEO originally from a launch on Thu, 04 Jun 1981 UTC launched from the Plesetsk Missile And Space Complex (PKMTR). Debris objects in space refer to the collection of defunct objects orbiting the Earth. Examples of debris include non-operational satellites, rocket bodies, and fragments generated from explosions, collisions, or faulty payload assembly.

Loading next visibility...
Identifier
12674, 1981-053AE
Orbit
LEO
Last TLE update
13 hours ago
Origin
Manufacturer
Unknown
Mission
Spacecraft
Bus & Motor
Unknown
Mass
Unknown
Launch date (UTC)
1981-06-04 (44 years ago)
Launch vehicle
Unknown
Launch site
Plesetsk Missile And Space Complex (PKMTR)
Object type
Payload
Rocket body
Debris
Shape & HBR
Unknown
Radar Cross Section
Medium (>0.1 m² and <1 m²)

Expand to show TLE details & history

TLE from 13 hours ago
0 COSMOS 1275 DEB
1 12674U 81053AE  25183.70905779  .00000507  00000-0  50176-3 0  9994
2 12674  82.9353 265.4494 0099989 236.5791 243.1905 13.74626724191808
Epoch: 2025-07-02T17:01Z
TLE epoch observation values (Epoch: 2025-07-02T17:01:02.593Z)
Latitude
60.55627°
Longitude
-103.41374°
Altitude
1,027.115 km
Speed
7.327 km/s
True Right ascension
04h 51m 19s
True Declination
60° 24' 51"
Sunlit
Object was in daylight at epoch
Visualization orbit readout
Latitude
-49.06279°
Longitude
80.6246°
Altitude
983.047 km
Speed
7.369 km/s
Apparent Right ascension
11h 16m 31s
Apparent Declination
-83° 55' 33"
Sunlit
Object is in full shadow
Visualization observer readout
Local Sidereal Time
17:55:38
Azimuth
187.904° SSW
Elevation
-40.681°
Doppler factor
1
Orbital elements
Apogee altitude
1,053.731 km
Perigee altitude
906.581 km
Semi-major axis
7,358.293 km
Eccentricity
0.01
Inclination
82.9353°
RAAN
265.4494°
Arg. of periapsis
236.5791°
True anomaly
Unknown
Mean anomaly
243.1905°
Eccentric anomaly
Unknown
Mean motion
3.43857 °/min
Orbital period
104.69 mins
BSTAR
0.00050176
Loading maneuver chart data...
Loading SW <> Apogee altitude chart data...
Loading historical data...
Loading historical data...
Loading historical data...
Loading historical data...
Loading historical data...
Loading historical data...
Loading historical data...

COSMOS 1275 DEB Visibility forecast

Observer location: undefined°, undefined°

Span
Click to sort rows by Start time (UTC) header in descending order
Start Az.
Max El. time (UTC)
Max El. Az.
Max El.
End time (UTC)
End Az.
13 mins2025-07-03 06:30:00.432Z196.697° SSW2025-07-03 06:36:00.432Z254.817° W42.122°2025-07-03 06:43:00.432Z1.581° NNE
5 mins2025-07-03 15:46:00.432Z42.652° NE2025-07-03 15:48:00.432Z63.1° ENE14.697°2025-07-03 15:51:00.432Z93.947° ESE
10 mins2025-07-03 17:30:00.432Z349.514° N2025-07-03 17:35:00.432Z221.428° SW44.166°2025-07-03 17:40:00.432Z179.925° S
10 mins2025-07-04 05:14:00.432Z145.917° SSE2025-07-04 05:19:00.432Z84.472° E30.322°2025-07-04 05:24:00.432Z27.635° NE
|